Time,TemperatureF,DewpointF,PressureIn,WindDirection,WindDirectionDegrees,WindSpeedMPH,WindSpeedGustMPH,Humidity,HourlyPrecipIn,Conditions,Clouds,dailyrainin,SoftwareType,DateUTC
2013-04-09 00:12:00,62.3,60.0,30.15,SE,130,0.0,0.0,92,0.00,,,0.00,weatherlink.com 1.10,2013-04-09 04:12:00,
2013-04-09 00:27:00,62.4,60.0,30.15,SE,130,0.0,0.0,92,0.00,,,0.00,weatherlink.com 1.10,2013-04-09 04:27:00,
2013-04-09 00:42:00,61.7,59.0,30.15,SE,130,0.0,0.0,92,0.00,,,0.00,weatherlink.com 1.10,2013-04-09 04:42:00,
2013-04-09 00:57:00,61.9,60.0,30.14,SE,130,0.0,0.0,93,0.00,,,0.00,weatherlink.com 1.10,2013-04-09 04:57:00,
2013-04-09 01:12:00,61.8,60.0,30.14,SE,130,0.0,0.0,93,0.00,,,0.00,weatherlink.com 1.10,2013-04-09 05:12:00,
2013-04-09 01:27:00,61.4,59.0,30.14,SE,130,0.0,0.0,93,0.00,,,0.00,weatherlink.com 1.10,2013-04-09 05:27:00,
2013-04-09 01:42:00,61.2,59.0,30.14,SE,130,0.0,1.0,93,0.00,,,0.00,weatherlink.com 1.10,2013-04-09 05:42:00,
2013-04-09 01:57:00,60.8,59.0,30.13,SE,130,0.0,0.0,93,0.00,,,0.00,weatherlink.com 1.10,2013-04-09 05:57:00,
2013-04-09 02:12:00,60.7,59.0,30.12,SE,130,0.0,0.0,93,0.00,,,0.00,weatherlink.com 1.10,2013-04-09 06:12:00,
2013-04-09 02:27:00,60.9,59.0,30.12,SE,130,0.0,0.0,93,0.00,,,0.00,weatherlink.com 1.10,2013-04-09 06:27:00,
2013-04-09 02:42:00,61.0,59.0,30.11,SE,130,0.0,0.0,93,0.00,,,0.00,weatherlink.com 1.10,2013-04-09 06:42:00,
2013-04-09 02:57:00,60.3,58.0,30.11,SE,130,0.0,0.0,93,0.00,,,0.00,weatherlink.com 1.10,2013-04-09 06:57:00,
2013-04-09 03:12:00,59.8,58.0,30.11,SE,130,0.0,0.0,93,0.00,,,0.00,weatherlink.com 1.10,2013-04-09 07:12:00,
2013-04-09 03:27:00,60.4,59.0,30.10,SE,130,0.0,0.0,94,0.00,,,0.00,weatherlink.com 1.10,2013-04-09 07:27:00,
2013-04-09 03:42:00,60.4,59.0,30.10,SE,130,0.0,0.0,94,0.00,,,0.00,weatherlink.com 1.10,2013-04-09 07:42:00,
2013-04-09 03:57:00,60.2,59.0,30.10,SE,130,0.0,0.0,94,0.00,,,0.00,weatherlink.com 1.10,2013-04-09 07:57:00,
2013-04-09 04:27:00,59.9,58.0,30.10,SE,130,0.0,0.0,94,0.00,,,0.00,weatherlink.com 1.10,2013-04-09 08:27:00,
2013-04-09 04:42:00,59.9,58.0,30.10,SE,130,0.0,0.0,94,0.00,,,0.00,weatherlink.com 1.10,2013-04-09 08:42:00,
2013-04-09 04:57:00,59.9,58.0,30.10,SE,130,0.0,0.0,94,0.00,,,0.00,weatherlink.com 1.10,2013-04-09 08:57:00,
2013-04-09 05:12:00,60.1,58.0,30.11,SE,130,0.0,0.0,94,0.00,,,0.00,weatherlink.com 1.10,2013-04-09 09:12:00,
2013-04-09 05:27:00,59.5,58.0,30.11,SE,130,0.0,0.0,94,0.00,,,0.00,weatherlink.com 1.10,2013-04-09 09:27:00,
2013-04-09 05:42:00,59.2,58.0,30.11,SE,130,0.0,0.0,94,0.00,,,0.00,weatherlink.com 1.10,2013-04-09 09:42:00,
2013-04-09 05:57:00,59.5,58.0,30.12,SE,130,0.0,0.0,94,0.00,,,0.00,weatherlink.com 1.10,2013-04-09 09:57:00,
2013-04-09 06:12:00,59.2,58.0,30.12,SE,130,0.0,0.0,94,0.00,,,0.00,weatherlink.com 1.10,2013-04-09 10:12:00,
2013-04-09 06:27:00,58.9,57.0,30.13,SE,130,0.0,0.0,94,0.00,,,0.00,weatherlink.com 1.10,2013-04-09 10:27:00,
2013-04-09 06:42:00,58.5,57.0,30.14,SE,130,0.0,0.0,94,0.00,,,0.00,weatherlink.com 1.10,2013-04-09 10:42:00,
2013-04-09 06:57:00,58.7,57.0,30.15,SE,130,0.0,0.0,94,0.00,,,0.00,weatherlink.com 1.10,2013-04-09 10:57:00,
2013-04-09 07:12:00,58.8,57.0,30.15,SE,130,0.0,0.0,94,0.00,,,0.00,weatherlink.com 1.10,2013-04-09 11:12:00,
2013-04-09 07:27:00,59.0,57.0,30.16,SE,130,0.0,0.0,94,0.00,,,0.00,weatherlink.com 1.10,2013-04-09 11:27:00,
2013-04-09 07:42:00,59.2,58.0,30.16,SE,126,0.0,0.0,94,0.00,,,0.00,weatherlink.com 1.10,2013-04-09 11:42:00,
2013-04-09 07:57:00,60.0,59.0,30.17,NNW,327,0.0,0.0,95,0.00,,,0.00,weatherlink.com 1.10,2013-04-09 11:57:00,
2013-04-09 08:12:00,61.5,60.0,30.18,ESE,122,0.0,1.0,95,0.00,,,0.00,weatherlink.com 1.10,2013-04-09 12:12:00,
2013-04-09 08:28:00,63.2,62.0,30.18,SW,232,0.0,0.0,95,0.00,,,0.00,weatherlink.com 1.10,2013-04-09 12:28:00,
2013-04-09 08:43:00,66.9,66.0,30.18,ESE,103,0.0,1.0,95,0.00,,,0.00,weatherlink.com 1.10,2013-04-09 12:43:00,
2013-04-09 08:58:00,68.5,67.0,30.18,SSE,156,0.0,4.0,95,0.00,,,0.00,weatherlink.com 1.10,2013-04-09 12:58:00,
2013-04-09 09:13:00,71.0,70.0,30.19,SSE,157,3.0,8.0,95,0.00,,,0.00,weatherlink.com 1.10,2013-04-09 13:13:00,
2013-04-09 09:28:00,72.1,69.0,30.19,South,175,3.0,7.0,91,0.00,,,0.00,weatherlink.com 1.10,2013-04-09 13:28:00,
2013-04-09 09:43:00,74.7,70.0,30.19,SSE,165,6.0,10.0,84,0.00,,,0.00,weatherlink.com 1.10,2013-04-09 13:43:00,
2013-04-09 09:58:00,75.5,70.0,30.19,South,182,4.0,8.0,83,0.00,,,0.00,weatherlink.com 1.10,2013-04-09 13:58:00,
2013-04-09 10:13:00,75.9,69.0,30.20,SSE,157,5.0,9.0,79,0.00,,,0.00,weatherlink.com 1.10,2013-04-09 14:13:00,
2013-04-09 10:28:00,78.3,70.0,30.20,South,173,2.0,13.0,76,0.00,,,0.00,weatherlink.com 1.10,2013-04-09 14:28:00,
2013-04-09 10:44:00,79.2,68.0,30.20,SE,138,10.0,16.0,68,0.00,,,0.00,weatherlink.com 1.10,2013-04-09 14:44:00,
2013-04-09 10:58:00,79.4,68.0,30.20,SSE,161,4.0,14.0,68,0.00,,,0.00,weatherlink.com 1.10,2013-04-09 14:58:00,
2013-04-09 11:13:00,80.3,68.0,30.20,South,180,4.0,12.0,67,0.00,,,0.00,weatherlink.com 1.10,2013-04-09 15:13:00,
2013-04-09 11:28:00,79.9,70.0,30.20,SE,140,12.0,14.0,71,0.00,,,0.00,weatherlink.com 1.10,2013-04-09 15:28:00,
2013-04-09 11:43:00,79.0,68.0,30.20,SE,137,4.0,13.0,70,0.00,,,0.00,weatherlink.com 1.10,2013-04-09 15:43:00,
2013-04-09 11:58:00,78.8,68.0,30.20,ESE,103,4.0,11.0,70,0.00,,,0.00,weatherlink.com 1.10,2013-04-09 15:58:00,
2013-04-09 12:13:00,79.8,68.0,30.19,SE,131,7.0,16.0,68,0.00,,,0.00,weatherlink.com 1.10,2013-04-09 16:13:00,
2013-04-09 12:28:00,80.3,68.0,30.20,SE,132,11.0,19.0,66,0.00,,,0.00,weatherlink.com 1.10,2013-04-09 16:28:00,
2013-04-09 12:43:00,79.1,68.0,30.19,South,171,9.0,15.0,68,0.00,,,0.00,weatherlink.com 1.10,2013-04-09 16:43:00,
2013-04-09 12:58:00,78.4,67.0,30.19,SSE,167,4.0,12.0,68,0.00,,,0.00,weatherlink.com 1.10,2013-04-09 16:58:00,
2013-04-09 13:13:00,77.7,68.0,30.19,SE,140,2.0,12.0,73,0.00,,,0.00,weatherlink.com 1.10,2013-04-09 17:13:00,
2013-04-09 13:43:00,78.0,68.0,30.18,SE,136,8.0,11.0,71,0.00,,,0.00,weatherlink.com 1.10,2013-04-09 17:43:00,
2013-04-09 14:43:00,78.1,68.0,30.18,SSE,167,11.0,13.0,71,0.00,,,0.00,weatherlink.com 1.10,2013-04-09 18:43:00,
2013-04-09 15:44:00,77.4,67.0,30.16,SE,129,13.0,16.0,71,0.00,,,0.00,weatherlink.com 1.10,2013-04-09 19:44:00,
2013-04-09 17:14:00,77.9,67.0,30.14,South,171,2.0,18.0,68,0.00,,,0.00,weatherlink.com 1.10,2013-04-09 21:14:00,
2013-04-09 17:44:00,77.6,67.0,30.14,SSE,159,9.0,16.0,69,0.00,,,0.00,weatherlink.com 1.10,2013-04-09 21:44:00,
2013-04-09 17:59:00,76.5,66.0,30.14,SE,136,2.0,17.0,70,0.00,,,0.00,weatherlink.com 1.10,2013-04-09 21:59:00,
2013-04-09 18:14:00,75.4,65.0,30.14,SE,136,2.0,15.0,71,0.00,,,0.00,weatherlink.com 1.10,2013-04-09 22:14:00,
2013-04-09 18:29:00,76.0,66.0,30.15,SSE,163,8.0,15.0,71,0.00,,,0.00,weatherlink.com 1.10,2013-04-09 22:29:00,
2013-04-09 18:44:00,76.1,66.0,30.14,South,171,7.0,17.0,70,0.00,,,0.00,weatherlink.com 1.10,2013-04-09 22:44:00,
2013-04-09 18:59:00,74.6,65.0,30.15,SE,124,5.0,17.0,71,0.00,,,0.00,weatherlink.com 1.10,2013-04-09 22:59:00,
2013-04-09 19:14:00,73.6,65.0,30.15,SE,145,8.0,13.0,74,0.00,,,0.00,weatherlink.com 1.10,2013-04-09 23:14:00,
2013-04-09 19:29:00,72.8,65.0,30.15,SE,131,9.0,10.0,76,0.00,,,0.00,weatherlink.com 1.10,2013-04-09 23:29:00,
2013-04-09 19:44:00,72.1,65.0,30.15,SSE,161,2.0,8.0,78,0.00,,,0.00,weatherlink.com 1.10,2013-04-09 23:44:00,
2013-04-09 19:59:00,71.1,64.0,30.15,SSE,151,0.0,8.0,79,0.00,,,0.00,weatherlink.com 1.10,2013-04-09 23:59:00,
2013-04-09 20:14:00,70.5,64.0,30.15,SE,140,3.0,7.0,80,0.00,,,0.00,weatherlink.com 1.10,2013-04-10 00:14:00,
2013-04-09 20:29:00,69.8,64.0,30.15,SE,141,0.0,7.0,81,0.00,,,0.00,weatherlink.com 1.10,2013-04-10 00:29:00,
2013-04-09 20:44:00,69.2,64.0,30.16,SE,141,1.0,7.0,82,0.00,,,0.00,weatherlink.com 1.10,2013-04-10 00:44:00,
2013-04-09 20:59:00,68.7,64.0,30.16,SE,142,1.0,5.0,84,0.00,,,0.00,weatherlink.com 1.10,2013-04-10 00:59:00,
2013-04-09 21:14:00,68.3,64.0,30.16,SE,142,3.0,4.0,85,0.00,,,0.00,weatherlink.com 1.10,2013-04-10 01:14:00,
2013-04-09 21:29:00,67.7,63.0,30.17,SE,142,0.0,4.0,85,0.00,,,0.00,weatherlink.com 1.10,2013-04-10 01:29:00,
2013-04-09 21:44:00,66.7,62.0,30.17,SE,142,0.0,2.0,86,0.00,,,0.00,weatherlink.com 1.10,2013-04-10 01:44:00,
2013-04-09 21:59:00,65.8,62.0,30.17,SE,142,0.0,0.0,87,0.00,,,0.00,weatherlink.com 1.10,2013-04-10 01:59:00,
2013-04-09 22:14:00,65.1,62.0,30.17,SE,142,0.0,0.0,88,0.00,,,0.00,weatherlink.com 1.10,2013-04-10 02:14:00,
2013-04-09 22:29:00,64.5,61.0,30.17,SE,142,0.0,0.0,89,0.00,,,0.00,weatherlink.com 1.10,2013-04-10 02:29:00,
2013-04-09 22:44:00,63.9,61.0,30.17,SE,142,0.0,1.0,90,0.00,,,0.00,weatherlink.com 1.10,2013-04-10 02:44:00,
2013-04-09 22:59:00,63.3,60.0,30.17,SE,142,0.0,1.0,90,0.00,,,0.00,weatherlink.com 1.10,2013-04-10 02:59:00,
2013-04-09 23:14:00,63.2,61.0,30.16,SE,142,0.0,0.0,91,0.00,,,0.00,weatherlink.com 1.10,2013-04-10 03:14:00,
2013-04-09 23:29:00,62.9,60.0,30.16,SE,142,0.0,1.0,91,0.00,,,0.00,weatherlink.com 1.10,2013-04-10 03:29:00,
2013-04-09 23:44:00,62.4,60.0,30.16,SE,142,0.0,0.0,91,0.00,,,0.00,weatherlink.com 1.10,2013-04-10 03:44:00,
2013-04-09 23:59:00,62.2,60.0,30.16,SE,142,0.0,2.0,92,0.00,,,0.00,weatherlink.com 1.10,2013-04-10 03:59:00,